| time (UTC) | temp C | wind direction | speed KPH | gust KPH | rain 1hr cm | rain 24hr cm | rain mn cm | humidity % | barometer mb |
| 20260906085538 | 19 | 0.0 | 0.0 | 0.00 | 0.03 | 0.00 | 67 | 1026.5 | |
| 20260906084537 | 19 | 0.0 | 0.0 | 0.00 | 0.03 | 0.00 | 69 | 1026.5 | |
| 20260906083517 | 18 | 0.0 | 0.0 | 0.00 | 0.03 | 0.00 | 71 | 1026.6 | |
| 20260906082517 | 18 | 0.0 | 0.0 | 0.00 | 0.03 | 0.00 | 71 | 1026.4 | |
| 20260906081537 | 18 | 0.0 | 1.6 | 0.00 | 0.03 | 0.00 | 72 | 1026.5 | |
| 20260906080537 | 18 | 0.0 | 0.0 | 0.00 | 0.03 | 0.00 | 72 | 1026.5 | |
| 20260906075517 | 17 | 0.0 | 0.0 | 0.00 | 0.03 | 0.00 | 79 | 1026.6 | |
| 20260906074517 | 17 | 0.0 | 0.0 | 0.00 | 0.03 | 0.00 | 83 | 1026.6 | |
| 20260906073517 | 16 | 0.0 | 0.0 | 0.00 | 0.03 | 0.00 | 87 | 1026.7 | |
| 20260906072517 | 16 | 0.0 | 3.2 | 0.00 | 0.03 | 0.00 | 90 | 1026.6 | |
| 20260906071517 | 16 | 0.0 | 0.0 | 0.00 | 0.03 | 0.00 | 93 | 1026.7 | |
| 20260906070517 | 15 | 0.0 | 0.0 | 0.00 | 0.03 | 0.00 | 93 | 1026.6 | |
| 20260906065517 | 15 | 0.0 | 0.0 | 0.00 | 0.05 | 0.00 | 93 | 1026.4 | |
| 20260906064517 | 15 | 0.0 | 1.6 | 0.00 | 0.05 | 0.00 | 94 | 1026.4 | |
| 20260906063537 | 14 | 0.0 | 0.0 | 0.00 | 0.05 | 0.00 | 94 | 1026.3 | |
| 20260906062517 | 14 | 0.0 | 0.0 | 0.00 | 0.05 | 0.00 | 94 | 1026.1 | |
| 20260906061517 | 13 | 0.0 | 0.0 | 0.00 | 0.05 | 0.00 | 94 | 1025.9 | |
| 20260906060517 | 12 | 0.0 | 0.0 | 0.00 | 0.05 | 0.00 | 93 | 1026.1 | |
| 20260906055517 | 12 | 0.0 | 0.0 | 0.00 | 0.05 | 0.00 | 92 | 1026.0 | |
| 20260906054517 | 12 | 0.0 | 0.0 | 0.00 | 0.05 | 0.00 | 92 | 1025.8 | |
| 20260906053517 | 12 | 0.0 | 0.0 | 0.00 | 0.05 | 0.00 | 92 | 1025.9 | |
| 20260906052517 | 12 | 0.0 | 0.0 | 0.00 | 0.05 | 0.00 | 91 | 1025.8 | |
| 20260906051517 | 12 | 0.0 | 0.0 | 0.00 | 0.05 | 0.00 | 91 | 1025.9 | |
| 20260906050537 | 12 | 0.0 | 0.0 | 0.00 | 0.05 | 0.00 | 91 | 1025.8 | |
| 20260906045517 | 12 | 0.0 | 0.0 | 0.00 | 0.05 | 0.00 | 91 | 1025.8 | |
| 20260906044517 | 12 | 0.0 | 0.0 | 0.00 | 0.05 | 0.00 | 91 | 1025.7 | |
| 20260906043537 | 12 | 0.0 | 0.0 | 0.00 | 0.05 | 0.00 | 91 | 1025.7 | |
| 20260906042517 | 13 | 0.0 | 0.0 | 0.00 | 0.05 | 0.00 | 91 | 1025.7 | |
| 20260906041517 | 13 | 0.0 | 0.0 | 0.00 | 0.05 | 0.00 | 91 | 1025.7 | |
| 20260906040517 | 13 | 0.0 | 0.0 | 0.00 | 0.05 | 0.00 | 91 | 1025.8 | |
| 20260906035517 | 13 | 0.0 | 0.0 | 0.00 | 0.05 | 0.00 | 91 | 1025.9 | |
| 20260906034517 | 13 | 0.0 | 0.0 | 0.00 | 0.05 | 0.00 | 91 | 1025.9 | |
| 20260906033517 | 14 | 0.0 | 0.0 | 0.00 | 0.05 | 0.00 | 91 | 1025.8 | |
| 20260906032517 | 14 | 0.0 | 0.0 | 0.00 | 0.05 | 0.00 | 91 | 1025.8 | |
| 20260906031517 | 15 | 0.0 | 0.0 | 0.00 | 0.05 | 0.00 | 91 | 1025.8 | |
| 20260906030517 | 15 | 0.0 | 0.0 | 0.00 | 0.05 | 0.00 | 92 | 1025.9 | |
| 20260906025517 | 15 | 0.0 | 0.0 | 0.00 | 0.05 | 0.00 | 92 | 1025.8 | |
| 20260906024537 | 15 | 0.0 | 0.0 | 0.00 | 0.05 | 0.00 | 92 | 1025.8 | |
| 20260906023517 | 15 | 0.0 | 0.0 | 0.00 | 0.05 | 0.00 | 92 | 1025.7 | |
| 20260906022517 | 15 | 0.0 | 0.0 | 0.00 | 0.05 | 0.00 | 92 | 1025.7 | |
| 20260906021517 | 15 | 0.0 | 0.0 | 0.00 | 0.05 | 0.00 | 91 | 1025.6 | |
| 20260906020517 | 15 | 0.0 | 0.0 | 0.00 | 0.05 | 0.00 | 91 | 1025.7 | |
| 20260906015517 | 15 | 0.0 | 0.0 | 0.00 | 0.05 | 0.00 | 91 | 1025.8 | |
| 20260906014517 | 15 | 0.0 | 0.0 | 0.00 | 0.05 | 0.00 | 91 | 1025.7 | |
| 20260906013517 | 15 | 0.0 | 0.0 | 0.00 | 0.05 | 0.00 | 91 | 1025.6 | |
| 20260906012517 | 15 | 0.0 | 0.0 | 0.00 | 0.05 | 0.00 | 91 | 1025.7 | |
| 20260906011517 | 15 | 0.0 | 0.0 | 0.00 | 0.05 | 0.00 | 91 | 1025.7 | |
| 20260906010517 | 15 | 0.0 | 0.0 | 0.00 | 0.05 | 0.00 | 91 | 1025.6 | |
| 20260906005517 | 15 | 0.0 | 0.0 | 0.00 | 0.05 | 0.00 | 91 | 1025.8 | |
| 20260906004517 | 15 | 0.0 | 0.0 | 0.00 | 0.05 | 0.00 | 90 | 1025.8 | |
| 20260906003517 | 15 | 0.0 | 0.0 | 0.00 | 0.05 | 0.00 | 90 | 1025.8 | |
| 20260906002517 | 15 | 0.0 | 0.0 | 0.00 | 0.05 | 0.00 | 90 | 1025.6 | |
| 20260906001537 | 15 | 0.0 | 0.0 | 0.00 | 0.05 | 0.00 | 90 | 1025.6 | |
| 20260906000517 | 15 | 0.0 | 0.0 | 0.00 | 0.05 | 0.00 | 90 | 1025.7 | |
| 20260905235517 | 15 | 0.0 | 0.0 | 0.00 | 0.05 | 0.00 | 90 | 1025.7 | |
| 20260905234537 | 15 | 0.0 | 0.0 | 0.00 | 0.05 | 0.00 | 89 | 1025.8 | |
| 20260905233517 | 15 | 0.0 | 0.0 | 0.00 | 0.05 | 0.00 | 89 | 1025.7 | |
| 20260905232537 | 15 | 0.0 | 0.0 | 0.00 | 0.05 | 0.00 | 89 | 1025.7 | |
| 20260905231517 | 15 | 0.0 | 0.0 | 0.00 | 0.05 | 0.00 | 89 | 1025.7 | |
| 20260905230537 | 15 | 0.0 | 0.0 | 0.00 | 0.05 | 0.00 | 89 | 1025.7 | |
| 20260905225516 | 15 | 0.0 | 0.0 | 0.00 | 0.05 | 0.00 | 89 | 1025.9 | |
| 20260905224536 | 15 | 0.0 | 0.0 | 0.00 | 0.05 | 0.00 | 88 | 1025.8 | |
| 20260905223517 | 15 | 0.0 | 0.0 | 0.00 | 0.05 | 0.00 | 88 | 1025.8 | |
| 20260905222517 | 15 | 0.0 | 0.0 | 0.00 | 0.05 | 0.00 | 88 | 1025.8 | |
| 20260905221516 | 16 | 0.0 | 0.0 | 0.00 | 0.05 | 0.00 | 88 | 1025.8 | |
| 20260905220517 | 16 | 0.0 | 0.0 | 0.00 | 0.05 | 0.00 | 88 | 1025.7 | |
| 20260905215517 | 16 | 0.0 | 0.0 | 0.00 | 0.05 | 0.05 | 87 | 1025.7 | |
| 20260905214517 | 16 | 0.0 | 0.0 | 0.00 | 0.05 | 0.05 | 87 | 1025.7 | |
| 20260905213517 | 16 | 0.0 | 0.0 | 0.00 | 0.05 | 0.05 | 88 | 1025.7 | |
| 20260905212557 | 16 | 0.0 | 0.0 | 0.00 | 0.05 | 0.05 | 87 | 1025.7 | |
| 20260905211517 | 16 | 0.0 | 0.0 | 0.00 | 0.05 | 0.05 | 87 | 1025.6 | |
| 20260905210517 | 16 | 0.0 | 0.0 | 0.00 | 0.05 | 0.05 | 87 | 1025.4 | |
| 20260905205537 | 16 | 0.0 | 0.0 | 0.00 | 0.05 | 0.05 | 87 | 1025.4 | |
| 20260905204557 | 16 | 0.0 | 0.0 | 0.00 | 0.05 | 0.05 | 86 | 1025.3 | |
| 20260905203517 | 16 | 0.0 | 0.0 | 0.00 | 0.05 | 0.05 | 86 | 1025.4 | |
| 20260905202517 | 17 | 0.0 | 0.0 | 0.00 | 0.05 | 0.05 | 85 | 1025.3 | |
| 20260905201517 | 17 | 0.0 | 0.0 | 0.00 | 0.05 | 0.05 | 85 | 1025.3 | |
| 20260905200517 | 17 | 0.0 | 0.0 | 0.00 | 0.05 | 0.05 | 85 | 1025.2 | |
| 20260905195537 | 17 | 0.0 | 0.0 | 0.00 | 0.05 | 0.05 | 84 | 1025.2 | |
| 20260905194517 | 17 | 0.0 | 0.0 | 0.00 | 0.05 | 0.05 | 84 | 1025.1 | |
| 20260905193515 | 17 | 0.0 | 0.0 | 0.00 | 0.05 | 0.05 | 83 | 1025.0 | |
| 20260905192517 | 17 | 0.0 | 0.0 | 0.00 | 0.05 | 0.05 | 83 | 1025.0 | |
| 20260905191517 | 18 | 0.0 | 0.0 | 0.00 | 0.05 | 0.05 | 83 | 1025.0 | |
| 20260905190517 | 18 | 0.0 | 0.0 | 0.00 | 0.05 | 0.05 | 82 | 1024.9 | |
| 20260905185517 | 18 | 0.0 | 0.0 | 0.00 | 0.05 | 0.05 | 81 | 1024.9 | |
| 20260905184517 | 18 | 0.0 | 0.0 | 0.00 | 0.05 | 0.05 | 79 | 1024.6 | |
| 20260905183517 | 18 | 0.0 | 0.0 | 0.00 | 0.05 | 0.05 | 79 | 1024.4 | |
| 20260905182537 | 18 | 0.0 | 0.0 | 0.00 | 0.05 | 0.05 | 78 | 1024.3 | |
| 20260905181517 | 19 | 0.0 | 0.0 | 0.00 | 0.05 | 0.05 | 78 | 1024.3 | |
| 20260905180517 | 19 | 0.0 | 0.0 | 0.00 | 0.05 | 0.05 | 77 | 1024.1 | |
| 20260905175537 | 20 | 0.0 | 0.0 | 0.00 | 0.05 | 0.05 | 77 | 1024.0 | |
| 20260905174517 | 20 | 0.0 | 0.0 | 0.00 | 0.05 | 0.05 | 77 | 1024.0 | |
| 20260905173517 | 20 | 0.0 | 0.0 | 0.00 | 0.05 | 0.05 | 76 | 1023.8 | |
| 20260905172517 | 20 | 0.0 | 0.0 | 0.00 | 0.05 | 0.05 | 76 | 1023.8 | |
| 20260905171517 | 20 | 0.0 | 0.0 | 0.00 | 0.05 | 0.05 | 76 | 1023.8 | |
| 20260905170517 | 20 | 0.0 | 0.0 | 0.00 | 0.05 | 0.05 | 76 | 1023.7 | |
| 20260905165517 | 20 | 0.0 | 3.2 | 0.00 | 0.05 | 0.05 | 75 | 1023.8 | |
| 20260905164517 | 20 | 0.0 | 3.2 | 0.00 | 0.05 | 0.05 | 75 | 1023.7 | |
| 20260905163517 | 20 | 0.0 | 1.6 | 0.00 | 0.05 | 0.05 | 74 | 1023.6 | |
| 20260905162517 | 20 | 0.0 | 3.2 | 0.00 | 0.05 | 0.05 | 74 | 1023.5 | |
| 20260905161517 | 20 | 0.0 | 1.6 | 0.00 | 0.05 | 0.05 | 75 | 1023.7 | |
| 20260905160517 | 20 | 0.0 | 6.4 | 0.00 | 0.05 | 0.05 | 75 | 1023.6 | |
| 20260905155517 | 20 | 0.0 | 4.8 | 0.00 | 0.05 | 0.05 | 75 | 1023.4 | |
| 20260905154518 | 20 | 0.0 | 3.2 | 0.00 | 0.05 | 0.05 | 76 | 1023.4 | |
| 20260905153537 | 20 | 0.0 | 3.2 | 0.00 | 0.05 | 0.05 | 76 | 1023.5 | |
| 20260905152517 | 20 | 0.0 | 0.0 | 0.00 | 0.05 | 0.05 | 76 | 1023.5 | |
| 20260905151517 | 20 | 0.0 | 3.2 | 0.00 | 0.05 | 0.05 | 76 | 1023.7 | |
| 20260905150517 | 20 | 0.0 | 3.2 | 0.00 | 0.05 | 0.05 | 74 | 1023.7 | |
| 20260905145517 | 20 | 0.0 | 3.2 | 0.00 | 0.05 | 0.05 | 74 | 1023.8 | |
| 20260905144517 | 20 | 0.0 | 1.6 | 0.00 | 0.05 | 0.05 | 76 | 1023.9 | |
| 20260905143517 | 20 | 0.0 | 1.6 | 0.00 | 0.05 | 0.05 | 76 | 1023.9 | |
| 20260905142537 | 20 | 0.0 | 0.0 | 0.00 | 0.05 | 0.05 | 77 | 1024.0 | |
| 20260905141517 | 20 | 0.0 | 4.8 | 0.00 | 0.05 | 0.05 | 78 | 1024.1 | |
| 20260905140517 | 20 | 0.0 | 0.0 | 0.00 | 0.05 | 0.05 | 77 | 1024.1 | |
| 20260905135517 | 20 | 0.0 | 6.4 | 0.00 | 0.05 | 0.05 | 74 | 1024.3 | |
| 20260905134517 | 21 | 0.0 | 1.6 | 0.00 | 0.05 | 0.05 | 73 | 1024.2 | |
| 20260905133517 | 21 | 315 | 3.2 | 11.3 | 0.00 | 0.05 | 0.05 | 74 | 1024.1 |
| 20260905132517 | 21 | 0.0 | 4.8 | 0.00 | 0.05 | 0.05 | 76 | 1024.1 | |
| 20260905131517 | 21 | 315 | 1.6 | 6.4 | 0.00 | 0.05 | 0.05 | 75 | 1024.0 |
| 20260905130517 | 22 | 0.0 | 3.2 | 0.00 | 0.05 | 0.05 | 75 | 1023.6 | |
| 20260905125517 | 22 | 0.0 | 6.4 | 0.00 | 0.05 | 0.05 | 75 | 1023.8 | |
| 20260905124517 | 22 | 0.0 | 4.8 | 0.00 | 0.05 | 0.05 | 72 | 1023.6 | |
| 20260905123537 | 22 | 0.0 | 1.6 | 0.00 | 0.05 | 0.05 | 73 | 1023.6 | |
| 20260905122517 | 22 | 0.0 | 1.6 | 0.03 | 0.05 | 0.05 | 76 | 1023.5 | |
| 20260905121517 | 21 | 0.0 | 0.0 | 0.03 | 0.05 | 0.05 | 80 | 1023.4 | |
| 20260905120517 | 21 | 0.0 | 0.0 | 0.03 | 0.05 | 0.05 | 81 | 1023.5 | |
| 20260905115516 | 21 | 0.0 | 0.0 | 0.03 | 0.05 | 0.05 | 81 | 1023.6 | |
| 20260905114537 | 20 | 0.0 | 0.0 | 0.03 | 0.05 | 0.05 | 81 | 1023.7 | |
| 20260905113516 | 20 | 0.0 | 0.0 | 0.03 | 0.05 | 0.05 | 84 | 1023.5 | |
| 20260905112516 | 19 | 0.0 | 0.0 | 0.00 | 0.05 | 0.05 | 83 | 1023.5 | |
| 20260905111517 | 19 | 0.0 | 0.0 | 0.00 | 0.05 | 0.05 | 83 | 1023.5 | |
| 20260905110516 | 19 | 0.0 | 0.0 | 0.00 | 0.05 | 0.05 | 84 | 1023.2 | |
| 20260905105517 | 19 | 0.0 | 0.0 | 0.00 | 0.05 | 0.05 | 83 | 1023.4 | |
| 20260905104517 | 20 | 0.0 | 0.0 | 0.00 | 0.05 | 0.05 | 81 | 1023.4 | |
| 20260905103517 | 20 | 0.0 | 0.0 | 0.00 | 0.05 | 0.05 | 79 | 1023.3 | |
| 20260905102517 | 20 | 0.0 | 0.0 | 0.00 | 0.05 | 0.05 | 74 | 1023.5 | |
| 20260905101536 | 20 | 0.0 | 1.6 | 0.00 | 0.05 | 0.05 | 76 | 1023.5 | |
| 20260905100516 | 20 | 0.0 | 0.0 | 0.00 | 0.05 | 0.05 | 76 | 1023.3 | |
| 20260905095516 | 20 | 0.0 | 1.6 | 0.00 | 0.05 | 0.05 | 78 | 1023.4 | |
| 20260905094516 | 21 | 0.0 | 1.6 | 0.00 | 0.05 | 0.05 | 80 | 1023.4 | |
| 20260905093516 | 21 | 0.0 | 4.8 | 0.00 | 0.05 | 0.05 | 80 | 1023.2 | |
| 20260905092517 | 20 | 0.0 | 0.0 | 0.00 | 0.05 | 0.05 | 81 | 1023.1 | |
| 20260905091516 | 20 | 0.0 | 1.6 | 0.00 | 0.05 | 0.05 | 81 | 1023.1 | |
| 20260905090517 | 20 | 0.0 | 3.2 | 0.00 | 0.05 | 0.05 | 83 | 1023.1 |